Aeroporto :
LOGIN :

Iscrizione | Disclaimer

   EN    FR    IT 

 










Sommario :    VFR   VFR Marginale   IFR   IFR Intensivo   IFR Molto Intensivo
Visibilità : 
Base nubi : 
>= 8 km
>= 3000ft
5 / 8 km
1000 / 3000 ft
1500m / 5 km
500 / 1000 ft
800 / 1500m
200 / 500 ft
< 800m
< 200 ft
Simboli :   Temporali  Nebbia  Neve Forte  Precipitazioni Forti  Vento > 20 kt
SIGMETs :   Varie  Temporali  Ghiacco  Turbolenza  Onda orograficha  Ceneri Vulcaniche






- Altitudine del aeroporto : 13 ft
- Codice IATA : LYX


EGMD - Lydd

ULTIMO METAR :
  • 220120Z AUTO 27007KT 9999 NCD 03/01 Q1037

METARs OBSOLETI :
  • 220050Z AUTO 28007KT 9999 NCD 02/01 Q1037
  • 220020Z AUTO 28008KT 9999 SCT019/// 03/01 Q1037
  • 212350Z AUTO 28007KT 9999 OVC019/// 04/02 Q1037
  • 212320Z AUTO 28008KT 9999 OVC020/// 04/02 Q1037
  • 212250Z AUTO 28009KT 9999 OVC021/// 04/02 Q1037

TAF TAF EGMD
Valido dal 22 a 00 ore il 22 a 09 ore UTC


212254Z 2200/2209 28006KT 9999 BKN025
PROB30
TEMPO 2203/2206 7000 BKN007
ATIS : +44 1797 322 422



MetMap, La meteo Aeronautica in un colpo d'occhio ! - Copyright ORBIFLY Dicembre 2007 - Disclaimer

ORBIFLY MET'MAP TEAM :

Programmazione e sviluppo : Alexandra Zaïnal
Concezione : Baudouin d'Aumeries
Aiuto per la programmazione : Marc-Olivier Méhu
Supporto tecnico e logistico : Manuel Goepfert
Aiuto per la traduzione : Arnaldo La Scala

Contatto : metmap@orbifly.com




FONTI E CREDITI :

   NOAA